Regional Weather Roundup
Issued by NWS

Home | Current Version | Previous Version | Text Only | Print | Product List | Glossary Off
Versions: 1 2 3 4 5 6 7 8 9 10 11 12 13 14 15 16 17 18 19 20 21 22 23 24 25 26 27 28 29 30 31 32 33 34 35 36 37 38 39 40 41 42 43 44 45 46 47 48 49 50

000
ASUS43 KDMX 130208
RWRIA

WEATHER ROUNDUP FOR IOWA
NATIONAL WEATHER SERVICE DES MOINES IA
800 PM CST FRI FEB 12 2016

NOTE: "FAIR" INDICATES FEW OR NO CLOUDS BELOW 12,000 FEET WITH NO
SIGNIFICANT WEATHER AND/OR OBSTRUCTIONS TO VISIBILITY.

* - THESE STATIONS ARE NOT NWS STATIONS...THUS NOT UNDER NWS
QUALITY CONTROL.  THEY ALSO DO NOT REPORT WEATHER SUCH
AS PRECIPITATION OR FOG.

IAZ001>003-012>014-020>022-031>034-043>046-130300-
   NORTHWEST IOWA

CITY           SKY/WX    TMP DP  RH WIND       PRES   REMARKS
CARROLL *      CLEAR      3  -2  78 NW12      30.59R WCI -13
CHEROKEE *     PTCLDY     3  -4  72 NW3       30.60R
DENISON *      CLEAR      7   0  72 CALM      30.58R
LE MARS *      CLEAR      5   0  78 CALM      30.64R
ORANGE CITY *  CLEAR      3  -4  72 N7        30.59R WCI  -9
SHELDON *      CLEAR      1  -4  78 N8        30.58S WCI -12
SIOUX CITY     CLOUDY    11   1  64 N7        30.63R WCI   0
SPENCER        CLOUDY     2  -6  69 N14       30.57F WCI -16
STORM LAKE *   CLEAR      3  -4  72 N7        30.57R WCI  -9
$$

IAZ055>058-069>071-079>083-090>094-130300-
   SOUTHWEST IOWA

CITY           SKY/WX    TMP DP  RH WIND       PRES   REMARKS
ATLANTIC *     CLEAR      9   1  72 N8        30.60R WCI  -4
AUDUBON *      CLEAR      7   0  72 NW8       30.58R WCI  -6
CLARINDA *     CLEAR     14   5  67 N12G21    30.61S WCI   0
COUNCIL BLFS * CLEAR     12   1  62 N9        30.60R WCI   0
CRESTON *      CLEAR     10   1  67 NW9       30.58R WCI  -2
HARLAN  *      CLEAR      9   1  72 N8        30.62F WCI  -4
LAMONI         CLOUDY    12   0  58 N13       30.56R WCI  -3
RED OAK *      MOCLDY    12   5  73 N13       30.60F WCI  -3
SHENANDOAH *   CLEAR     14   3  62 N13       30.61S WCI   0
$$

IAZ047>049-059>061-072>074-084-130300-
   CENTRAL IOWA

CITY           SKY/WX    TMP DP  RH WIND       PRES   REMARKS
AMES           CLOUDY     7  -1  70 NW14      30.58R WCI -10
ANKENY *       CLEAR      9   1  72 NW14G20   30.58S WCI  -8
BOONE *        CLEAR      5  -2  72 NW16      30.55S WCI -14
CHARITON *     CLEAR     10   0  61 NW12G21   30.56R WCI  -4
DES MOINES     CLOUDY    10  -1  61 N7        30.58R WCI  -1
GRINNELL*      CLEAR      9   3  78 NW13      30.54R WCI  -7
KNOXVILLE *    CLEAR     10   0  61 NW14      30.55R WCI  -5
MARSHALLTOWN   CLOUDY     7   0  73 NW13      30.54R WCI  -9
NEWTON *       FLURRIES   9   1  72 NW17      30.55R WCI -10
PELLA *        CLOUDY    10   1  67 NW14      30.58R WCI  -5
$$

IAZ004>006-015-016-023>025-035-036-130300-
   NORTH CENTRAL IOWA

CITY           SKY/WX    TMP DP  RH WIND       PRES   REMARKS
ALGONA *       CLEAR      3  -2  78 NW16      30.55S WCI -16
CLARION *      CLEAR      3  -4  72 NW15      30.56R WCI -15
ESTHERVILLE    CLOUDY     1  -4  79 NW16      30.57R WCI -19
FORT DODGE *   CLOUDY     3  -6  66 NW9G16    30.58S WCI -11
MASON CITY     CLOUDY     3  -6  66 N14       30.54R WCI -15
FOREST CITY *  CLEAR      3  -4  72 NW10      30.53S WCI -12
WEBSTER CITY * CLEAR      3  -2  78 NW15      30.55S WCI -15
IOWA FALLS *     N/A      5   0  78 NW15      30.55R WCI -13
$$

IAZ007>011-017>019-026>030-037>042-050>054-066-130300-
   NORTHEAST IOWA

CITY           SKY/WX    TMP DP  RH WIND       PRES   REMARKS
CEDAR RAPIDS   CLEAR      9  -1  64 N16G24    30.51R WCI  -8
CHARLES CITY * CLEAR      5  -8  56 NW14G22   30.53R WCI -12
CLINTON *      CLEAR     11  -1  58 NW21      30.46R WCI  -8
DECORAH *      CLEAR      5 -11  47 NW10      30.48R WCI -10
DUBUQUE        CLEAR      8  -5  55 NW17      30.43R WCI -10
MONTICELLO *   CLEAR      9  -2  61 NW17      30.48R WCI -10
OELWEIN *      CLEAR      3  -6  66 NW14      30.51R WCI -15
WATERLOO       CLOUDY     6  -5  60 NW17      30.54R WCI -13
$$

IAZ064-065-067-068-078-130300-
   EAST CENTRAL IOWA

CITY           SKY/WX    TMP DP  RH WIND       PRES   REMARKS
DAVENPORT      CLEAR     10  -2  58 NW17G25   30.47R WCI  -8
IOWA CITY      CLEAR     12  -3  51 NW17G26   30.54R WCI  -5
MT. PLEASANT * CLEAR     16   3  57 NW12G22   30.52R WCI   3
MUSCATINE *    CLEAR     14   0  52 NW16G25   30.53R WCI  -2
QUAD CITIES    CLEAR     12  -1  56 NW17G25   30.48R WCI  -5
$$

IAZ062-063-075>077-085>089-095>099-130300-
   SOUTHEAST IOWA

CITY           SKY/WX    TMP DP  RH WIND       PRES   REMARKS
BURLINGTON     CLEAR     13   2  61 NW16G29   30.50R WCI  -3
FAIRFIELD *    CLEAR     12   1  62 NW15G21   30.53R WCI  -4
FORT MADISON * CLEAR     12   3  67 NW16G23   30.51R WCI  -4
KEOKUK *       CLEAR     16   5  62 NW15G26   30.51R WCI   1
OSKALOOSA *      N/A     10   3  72 NW16      30.55R WCI  -7
CENTERVILLE *  CLEAR     10   3  72 NW10      30.56R WCI  -3
OTTUMWA        CLEAR     10   2  69 NW15      30.55R WCI  -7
WASHINGTON *   CLEAR     12   1  62 NW18      30.54R WCI  -5
$$

ABBREVIATIONS USED IN REMARKS
   TC - TEMPERATURES IN CELSIUS
  WCI - WIND CHILL INDEX
   HX - HEAT INDEX
  VSB - VISIBILITY
$$




USA.gov is the U.S. government's official web portal to all federal, state and local government web resources and services.